User: anonymous   Login
Location: Elk Forest
(39.5314°N, 75.8738°W)
Time: 13:15:38
(UTC-05:00)
Language:

Resurs 01 Rocket - Orbit

View from above orbital plane
View from above orbital plane
View from above satellite
View from above satellite

Ground track
Ground track

The orbit data is extracted from the following two-line orbital elements,

1 23343U 94074B   17022.17982556 -.00000013  00000-0  57920-5 0  9997
2 23343  98.1720  57.6631 0007050 170.7339 229.5122 14.76685979195284
Epoch (UTC): 22 January 2017 04:18:56
Eccentricity: 0.0007050
inclination: 98.1720°
perigee height: 635 km
apogee height: 645 km
right ascension of ascending node: 57.6631°
argument of perigee: 170.7339°
revolutions per day: 14.76685979
mean anomaly at epoch: 229.5122°
orbit number at epoch: 19528

The dashed part of the orbit path shows where the satellite is in the earth's shadow,  

DLR